Location: Bailleul
(50.3375°N, 2.8513°E)
Time: 04:32:38
(UTC+00:00)

Cosmos 1980 - Pass Details

Date: 01 November 2021
Orbit: 839 x 847 km, 71.0° (Epoch: 01 December)

Event Time Altitude Azimuth Distance (km) Brightness Sun altitude
Rises 18:05:31 0° 174° (S) 3,378 6.8 -16.5°
Reaches altitude 10° 18:08:12 10° 164° (SSE) 2,449 6.0 -17.0°
Maximum altitude 18:13:00 30° 105° (ESE) 1,474 4.4 -17.7°
Enters shadow 18:13:17 30° 99° (E) 1,480 4.4 -17.8°
